sat.trackr.live / text

‹ back to catalog

STARLINK-31759

NORAD 59740 · 2024-090L

PAYLOAD ACTIVE UNKNOWN

§ Identity

Operator
Country
US
Launch date
2024-05-13
Launch site
AFETR
Launch vehicle
Mass (kg)
RCS (m²)

Purposes: comms

External: N2YO · Heavens-Above · Gunter

§ Orbital elements

Epoch: 2026-09-21T10:31:19.276320Z

Period
94.27 min
Inclination
43.0028°
Eccentricity
0.0001218
Mean motion
15.27575745 rev/d
Perigee alt
482.2 km
Apogee alt
483.9 km
Semi-major
6,861.2 km
B*
1.2911e-5
RAAN
158.3303°
Arg perigee
272.1093°
Mean anomaly
87.9619°
Rev number
13,337

§ Raw data

STARLINK-317591 59740U 24090L   26264.43841755  .00000093  00000+0  12911-4 0  99962 59740  43.0028 158.3303 0001218 272.1093  87.9619 15.27575745133378

JSON: /api/v1/satellites/59740 · /tle

For live sub-satellite position, see the globe view (requires WebGL).

§ Visibility from observer

Set your observer location to see the next 7 days of passes ≥ 10°. The values pass through the URL so the page stays shareable.

No JS? Fill the form by hand. The geolocation button needs JavaScript.